******** Week 361 almanac for PRN-01 ******** ID: 01 Health: 000 Eccentricity: 0.1616954803E-002 Time of Applicability(s): 589824.0000 Orbital Inclination(rad): 0.9581891149 Rate of Right Ascen(r/s): -0.7828897534E-008 SQRT(A) (m 1/2): 5153.577148 Right Ascen at Week(rad): 0.3008570379E+001 Argument of Perigee(rad): 0.107000029 Mean Anom(rad): 0.2571856235E+001 Af0(s): 0.3175735474E-003 Af1(s/s): -0.7275957614E-011 week: 361 ******** Week 361 almanac for PRN-02 ******** ID: 02 Health: 000 Eccentricity: 0.1688337326E-001 Time of Applicability(s): 589824.0000 Orbital Inclination(rad): 0.9633842764 Rate of Right Ascen(r/s): -0.7680319916E-008 SQRT(A) (m 1/2): 5153.544434 Right Ascen at Week(rad): 0.2846162410E+001 Argument of Perigee(rad): -0.804748942 Mean Anom(rad): -0.2231567539E+001 Af0(s): 0.5817413330E-004 Af1(s/s): 0.7275957614E-011 week: 361 ******** Week 361 almanac for PRN-03 ******** ID: 03 Health: 000 Eccentricity: 0.6537914276E-002 Time of Applicability(s): 589824.0000 Orbital Inclination(rad): 0.9934646809 Rate of Right Ascen(r/s): -0.7851755629E-008 SQRT(A) (m 1/2): 5153.575195 Right Ascen at Week(rad): -0.2287526380E+001 Argument of Perigee(rad): 1.203707534 Mean Anom(rad): 0.4599448147E+000 Af0(s): 0.5397796631E-003 Af1(s/s): -0.1455191523E-010 week: 361 ******** Week 361 almanac for PRN-04 ******** ID: 04 Health: 000 Eccentricity: 0.3735542297E-002 Time of Applicability(s): 589824.0000 Orbital Inclination(rad): 0.9704909218 Rate of Right Ascen(r/s): -0.7897471819E-008 SQRT(A) (m 1/2): 5153.681641 Right Ascen at Week(rad): -0.1216930628E+001 Argument of Perigee(rad): -2.874313729 Mean Anom(rad): -0.2852135422E+001 Af0(s): 0.4863739014E-004 Af1(s/s): 0.0000000000E+000 week: 361 ******** Week 361 almanac for PRN-05 ******** ID: 05 Health: 000 Eccentricity: 0.5422115326E-002 Time of Applicability(s): 589824.0000 Orbital Inclination(rad): 0.9800303648 Rate of Right Ascen(r/s): -0.7977475151E-008 SQRT(A) (m 1/2): 5153.662598 Right Ascen at Week(rad): -0.2347421663E+001 Argument of Perigee(rad): 1.418007571 Mean Anom(rad): -0.2183484207E+001 Af0(s): -0.2307891846E-003 Af1(s/s): 0.0000000000E+000 week: 361 ******** Week 361 almanac for PRN-06 ******** ID: 06 Health: 000 Eccentricity: 0.3845214844E-002 Time of Applicability(s): 589824.0000 Orbital Inclination(rad): 0.9870471285 Rate of Right Ascen(r/s): -0.7531742299E-008 SQRT(A) (m 1/2): 5153.603516 Right Ascen at Week(rad): 0.2959450786E+001 Argument of Perigee(rad): -0.555884153 Mean Anom(rad): 0.1769288422E+001 Af0(s): -0.6122589111E-003 Af1(s/s): 0.0000000000E+000 week: 361 ******** Week 361 almanac for PRN-07 ******** ID: 07 Health: 000 Eccentricity: 0.2055740356E-001 Time of Applicability(s): 589824.0000 Orbital Inclination(rad): 0.9513281462 Rate of Right Ascen(r/s): -0.7748894201E-008 SQRT(A) (m 1/2): 5153.572266 Right Ascen at Week(rad): -0.2082847053E+000 Argument of Perigee(rad): -1.988509107 Mean Anom(rad): 0.9141551778E+000 Af0(s): -0.1611709595E-003 Af1(s/s): -0.3637978807E-011 week: 361 ******** Week 361 almanac for PRN-08 ******** ID: 08 Health: 000 Eccentricity: 0.1159000397E-001 Time of Applicability(s): 589824.0000 Orbital Inclination(rad): 0.9430650231 Rate of Right Ascen(r/s): -0.8091765626E-008 SQRT(A) (m 1/2): 5153.632324 Right Ascen at Week(rad): 0.1838681579E+001 Argument of Perigee(rad): 0.527468057 Mean Anom(rad): -0.2546269915E+001 Af0(s): 0.4787445068E-003 Af1(s/s): -0.7275957614E-011 week: 361 ******** Week 361 almanac for PRN-09 ******** ID: 09 Health: 000 Eccentricity: 0.3345012665E-002 Time of Applicability(s): 589824.0000 Orbital Inclination(rad): 0.9646486122 Rate of Right Ascen(r/s): -0.7988904198E-008 SQRT(A) (m 1/2): 5153.722656 Right Ascen at Week(rad): -0.1281279174E+001 Argument of Perigee(rad): 2.067094913 Mean Anom(rad): -0.1955957331E+001 Af0(s): 0.7667541504E-003 Af1(s/s): -0.3637978807E-011 week: 361 ******** Week 361 almanac for PRN-10 ******** ID: 10 Health: 000 Eccentricity: 0.1093244553E-001 Time of Applicability(s): 589824.0000 Orbital Inclination(rad): 0.9929972962 Rate of Right Ascen(r/s): -0.7840326581E-008 SQRT(A) (m 1/2): 5153.604004 Right Ascen at Week(rad): -0.2290035951E+001 Argument of Perigee(rad): -2.255791028 Mean Anom(rad): -0.5310944089E+000 Af0(s): -0.5903244019E-003 Af1(s/s): 0.0000000000E+000 week: 361 ******** Week 361 almanac for PRN-11 ******** ID: 11 Health: 000 Eccentricity: 0.2204418182E-002 Time of Applicability(s): 589824.0000 Orbital Inclination(rad): 0.9639175744 Rate of Right Ascen(r/s): -0.7748894201E-008 SQRT(A) (m 1/2): 5153.535645 Right Ascen at Week(rad): 0.2977972031E+001 Argument of Perigee(rad): -2.307406711 Mean Anom(rad): 0.2874839911E+001 Af0(s): -0.4072189331E-003 Af1(s/s): 0.1455191523E-010 week: 361 ******** Week 361 almanac for PRN-12 ******** ID: 12 Health: 000 Eccentricity: 0.9006977081E-002 Time of Applicability(s): 589824.0000 Orbital Inclination(rad): 0.9591298766 Rate of Right Ascen(r/s): -0.7954617056E-008 SQRT(A) (m 1/2): 5153.707031 Right Ascen at Week(rad): 0.9092502592E+000 Argument of Perigee(rad): 1.563766455 Mean Anom(rad): 0.2424015466E+000 Af0(s): -0.6074905396E-003 Af1(s/s): 0.0000000000E+000 week: 361 ******** Week 361 almanac for PRN-13 ******** ID: 13 Health: 000 Eccentricity: 0.1002073288E-001 Time of Applicability(s): 589824.0000 Orbital Inclination(rad): 0.9761354917 Rate of Right Ascen(r/s): -0.7806039439E-008 SQRT(A) (m 1/2): 5153.627441 Right Ascen at Week(rad): -0.1105963821E+001 Argument of Perigee(rad): 0.995749773 Mean Anom(rad): -0.2788732132E+001 Af0(s): 0.6837844849E-003 Af1(s/s): 0.0000000000E+000 week: 361 ******** Week 361 almanac for PRN-14 ******** ID: 14 Health: 000 Eccentricity: 0.6778717041E-002 Time of Applicability(s): 589824.0000 Orbital Inclination(rad): 0.9425077566 Rate of Right Ascen(r/s): -0.8126052768E-008 SQRT(A) (m 1/2): 5153.590820 Right Ascen at Week(rad): 0.8544171872E+000 Argument of Perigee(rad): -2.745870177 Mean Anom(rad): 0.9370353101E-001 Af0(s): 0.7390975952E-003 Af1(s/s): 0.0000000000E+000 week: 361 ******** Week 361 almanac for PRN-15 ******** ID: 15 Health: 000 Eccentricity: 0.1661777496E-001 Time of Applicability(s): 589824.0000 Orbital Inclination(rad): 0.9425317251 Rate of Right Ascen(r/s): -0.8286059433E-008 SQRT(A) (m 1/2): 5153.645996 Right Ascen at Week(rad): -0.1425670359E+001 Argument of Perigee(rad): 1.504060298 Mean Anom(rad): 0.2740119621E+001 Af0(s): 0.3938674927E-003 Af1(s/s): 0.3637978807E-011 week: 361 ******** Week 361 almanac for PRN-16 ******** ID: 16 Health: 000 Eccentricity: 0.1504087448E-001 Time of Applicability(s): 589824.0000 Orbital Inclination(rad): 0.9582430439 Rate of Right Ascen(r/s): -0.7988904198E-008 SQRT(A) (m 1/2): 5153.592773 Right Ascen at Week(rad): 0.9262060649E+000 Argument of Perigee(rad): 0.931070911 Mean Anom(rad): -0.1514622520E+001 Af0(s): 0.2260208130E-003 Af1(s/s): 0.7275957614E-011 week: 361 ******** Week 361 almanac for PRN-17 ******** ID: 17 Health: 000 Eccentricity: 0.1264524460E-001 Time of Applicability(s): 589824.0000 Orbital Inclination(rad): 0.9587643577 Rate of Right Ascen(r/s): -0.7886042771E-008 SQRT(A) (m 1/2): 5153.544434 Right Ascen at Week(rad): 0.1943609085E+001 Argument of Perigee(rad): -1.119470417 Mean Anom(rad): -0.2608087917E+001 Af0(s): -0.8773803711E-004 Af1(s/s): -0.1091393642E-010 week: 361 ******** Week 361 almanac for PRN-18 ******** ID: 18 Health: 000 Eccentricity: 0.5769252777E-002 Time of Applicability(s): 589824.0000 Orbital Inclination(rad): 0.9720009341 Rate of Right Ascen(r/s): -0.7680319916E-008 SQRT(A) (m 1/2): 5153.594238 Right Ascen at Week(rad): 0.2954250381E+001 Argument of Perigee(rad): -2.867141919 Mean Anom(rad): 0.1690874141E+001 Af0(s): -0.4024505615E-003 Af1(s/s): 0.1091393642E-010 week: 361 ******** Week 361 almanac for PRN-19 ******** ID: 19 Health: 000 Eccentricity: 0.1117229462E-001 Time of Applicability(s): 589824.0000 Orbital Inclination(rad): 0.9579494304 Rate of Right Ascen(r/s): -0.7886042771E-008 SQRT(A) (m 1/2): 5153.668945 Right Ascen at Week(rad): 0.1987506178E+001 Argument of Perigee(rad): 2.936711468 Mean Anom(rad): -0.8059747031E+000 Af0(s): 0.6933212280E-003 Af1(s/s): 0.0000000000E+000 week: 361 ******** Week 361 almanac for PRN-20 ******** ID: 20 Health: 000 Eccentricity: 0.2270698547E-002 Time of Applicability(s): 589824.0000 Orbital Inclination(rad): 0.9600526619 Rate of Right Ascen(r/s): -0.8057478483E-008 SQRT(A) (m 1/2): 5153.706055 Right Ascen at Week(rad): -0.1275723737E+001 Argument of Perigee(rad): -1.994214347 Mean Anom(rad): 0.2221849082E+000 Af0(s): 0.5245208740E-004 Af1(s/s): 0.2182787284E-010 week: 361 ******** Week 361 almanac for PRN-21 ******** ID: 21 Health: 000 Eccentricity: 0.7653236389E-003 Time of Applicability(s): 589824.0000 Orbital Inclination(rad): 0.9628749469 Rate of Right Ascen(r/s): -0.8171768958E-008 SQRT(A) (m 1/2): 5153.718262 Right Ascen at Week(rad): -0.2281639878E+001 Argument of Perigee(rad): -0.296139186 Mean Anom(rad): -0.7802367075E-001 Af0(s): 0.4081726074E-003 Af1(s/s): 0.3637978807E-011 week: 361 ******** Week 361 almanac for PRN-22 ******** ID: 22 Health: 000 Eccentricity: 0.1206684113E-001 Time of Applicability(s): 589824.0000 Orbital Inclination(rad): 0.9576857775 Rate of Right Ascen(r/s): -0.8000333246E-008 SQRT(A) (m 1/2): 5153.563477 Right Ascen at Week(rad): 0.9295608989E+000 Argument of Perigee(rad): -0.993200504 Mean Anom(rad): -0.1960494858E+001 Af0(s): -0.3433227539E-004 Af1(s/s): 0.3637978807E-011 week: 361 ******** Week 361 almanac for PRN-23 ******** ID: 23 Health: 000 Eccentricity: 0.6048679352E-002 Time of Applicability(s): 589824.0000 Orbital Inclination(rad): 0.9880058665 Rate of Right Ascen(r/s): -0.7874613724E-008 SQRT(A) (m 1/2): 5153.658691 Right Ascen at Week(rad): -0.2322176144E+001 Argument of Perigee(rad): -2.739596809 Mean Anom(rad): 0.5490789854E+000 Af0(s): 0.6237030029E-003 Af1(s/s): 0.3637978807E-011 week: 361 ******** Week 361 almanac for PRN-24 ******** ID: 24 Health: 000 Eccentricity: 0.1791810989E-001 Time of Applicability(s): 589824.0000 Orbital Inclination(rad): 0.9352872611 Rate of Right Ascen(r/s): -0.7943188009E-008 SQRT(A) (m 1/2): 5153.597656 Right Ascen at Week(rad): -0.3169640234E+000 Argument of Perigee(rad): 1.136885368 Mean Anom(rad): 0.1895997632E+001 Af0(s): -0.8201599121E-004 Af1(s/s): 0.1818989404E-010 week: 361 ******** Week 361 almanac for PRN-25 ******** ID: 25 Health: 000 Eccentricity: 0.1293087006E-001 Time of Applicability(s): 589824.0000 Orbital Inclination(rad): 0.9475531153 Rate of Right Ascen(r/s): -0.8057478483E-008 SQRT(A) (m 1/2): 5153.657715 Right Ascen at Week(rad): 0.8152875693E+000 Argument of Perigee(rad): 1.158795902 Mean Anom(rad): 0.1140343941E+000 Af0(s): 0.4377365112E-003 Af1(s/s): -0.3637978807E-011 week: 361 ******** Week 361 almanac for PRN-26 ******** ID: 26 Health: 000 Eccentricity: 0.1101160049E-001 Time of Applicability(s): 589824.0000 Orbital Inclination(rad): 0.9283723634 Rate of Right Ascen(r/s): -0.8251772291E-008 SQRT(A) (m 1/2): 5153.658203 Right Ascen at Week(rad): 0.7405299744E+000 Argument of Perigee(rad): 0.711218433 Mean Anom(rad): -0.7065378439E+000 Af0(s): -0.3404617310E-003 Af1(s/s): -0.3637978807E-011 week: 361 ******** Week 361 almanac for PRN-27 ******** ID: 27 Health: 000 Eccentricity: 0.1437377930E-001 Time of Applicability(s): 589824.0000 Orbital Inclination(rad): 0.9521670419 Rate of Right Ascen(r/s): -0.8000333246E-008 SQRT(A) (m 1/2): 5153.610840 Right Ascen at Week(rad): 0.1870826640E+001 Argument of Perigee(rad): 0.884355654 Mean Anom(rad): -0.2443325423E+001 Af0(s): -0.6866455078E-004 Af1(s/s): -0.1091393642E-010 week: 361 ******** Week 361 almanac for PRN-28 ******** ID: 28 Health: 000 Eccentricity: 0.4262924194E-003 Time of Applicability(s): 589824.0000 Orbital Inclination(rad): 0.9622517672 Rate of Right Ascen(r/s): -0.7646032774E-008 SQRT(A) (m 1/2): 5153.757324 Right Ascen at Week(rad): -0.2338878783E+000 Argument of Perigee(rad): -0.073669278 Mean Anom(rad): 0.1308472879E+001 Af0(s): -0.5779266357E-003 Af1(s/s): 0.7275957614E-011 week: 361 ******** Week 361 almanac for PRN-29 ******** ID: 29 Health: 000 Eccentricity: 0.3395557404E-002 Time of Applicability(s): 589824.0000 Orbital Inclination(rad): 0.9614188635 Rate of Right Ascen(r/s): -0.7851755629E-008 SQRT(A) (m 1/2): 5153.700195 Right Ascen at Week(rad): 0.1960373518E+001 Argument of Perigee(rad): 2.743582313 Mean Anom(rad): -0.2585757561E+001 Af0(s): -0.3595352173E-003 Af1(s/s): 0.7275957614E-011 week: 361 ******** Week 361 almanac for PRN-30 ******** ID: 30 Health: 000 Eccentricity: 0.8108139038E-002 Time of Applicability(s): 589824.0000 Orbital Inclination(rad): 0.9365815574 Rate of Right Ascen(r/s): -0.7897471819E-008 SQRT(A) (m 1/2): 5153.702637 Right Ascen at Week(rad): -0.2174552589E+000 Argument of Perigee(rad): -2.311364501 Mean Anom(rad): 0.7306516025E+000 Af0(s): 0.1525878906E-003 Af1(s/s): 0.1455191523E-010 week: 361 ******** Week 361 almanac for PRN-31 ******** ID: 31 Health: 000 Eccentricity: 0.1084136963E-001 Time of Applicability(s): 589824.0000 Orbital Inclination(rad): 0.9550971849 Rate of Right Ascen(r/s): -0.7714607059E-008 SQRT(A) (m 1/2): 5153.528320 Right Ascen at Week(rad): -0.1840233910E+000 Argument of Perigee(rad): 0.937486591 Mean Anom(rad): -0.1778402800E+000 Af0(s): -0.1611709595E-003 Af1(s/s): 0.3637978807E-011 week: 361 ******** Week 361 almanac for PRN-32 ******** ID: 32 Health: 000 Eccentricity: 0.9374618530E-002 Time of Applicability(s): 589824.0000 Orbital Inclination(rad): 0.9676926053 Rate of Right Ascen(r/s): -0.7954617056E-008 SQRT(A) (m 1/2): 5153.689453 Right Ascen at Week(rad): -0.1264231240E+001 Argument of Perigee(rad): -1.994110235 Mean Anom(rad): -0.1874105075E+001 Af0(s): -0.4863739014E-004 Af1(s/s): 0.1818989404E-010 week: 361